Tiempo cada hora Cayo Largo

Hoy, 17 Abril, Sábado

Tiempo Temperatura Precipitaciones Viento Presión Humedad
00:00 +23°C° 0 mm 1 mps 757 mmHg 90%
01:00 +24°C° 0 mm 2 mps 757 mmHg 89%
02:00 +24°C° 0 mm 3 mps 756 mmHg 87%
03:00 +24°C° 0 mm 3 mps 756 mmHg 86%
04:00 +25°C° 0 mm 3 mps 757 mmHg 84%
05:00 +25°C° 0 mm 3 mps 757 mmHg 83%
06:00 +25°C° 0 mm 3 mps 757 mmHg 81%
07:00 +28°C° 0 mm 4 mps 757 mmHg 70%
08:00 +30°C° 0 mm 5 mps 757 mmHg 59%
09:00 +33°C° 0 mm 6 mps 757 mmHg 48%
10:00 +34°C° 0 mm 6 mps 757 mmHg 45%
11:00 +35°C° 0 mm 6 mps 757 mmHg 43%
12:00 +36°C° 0 mm 7 mps 757 mmHg 40%
13:00 +35°C° 0 mm 6 mps 757 mmHg 41%
14:00 +35°C° 0 mm 6 mps 756 mmHg 42%
15:00 +35°C° 0 mm 5 mps 756 mmHg 43%
16:00 +33°C° 0 mm 4 mps 756 mmHg 54%
17:00 +29°C° 0 mm 4 mps 757 mmHg 65%
18:00 +27°C° 0 mm 3 mps 757 mmHg 76%
19:00 +27°C° 0 mm 2 mps 757 mmHg 82%
20:00 +26°C° 0 mm 2 mps 757 mmHg 87%
21:00 +25°C° 0 mm 2 mps 758 mmHg 93%
22:00 +25°C° 0 mm 2 mps 758 mmHg 93%
23:00 +25°C° 0 mm 2 mps 758 mmHg 93%

Mañana, 18 Abril, Domingo

Tiempo Temperatura Precipitaciones Viento Presión Humedad
00:00 +25°C° 0 mm 2 mps 758 mmHg 94%
01:00 +25°C° 0 mm 2 mps 758 mmHg 93%
02:00 +25°C° 0 mm 2 mps 757 mmHg 93%
03:00 +25°C° 0 mm 2 mps 757 mmHg 93%
04:00 +25°C° 0 mm 2 mps 757 mmHg 92%
05:00 +26°C° 0 mm 3 mps 758 mmHg 91%
06:00 +26°C° 0 mm 3 mps 758 mmHg 91%
07:00 +28°C° 0 mm 4 mps 758 mmHg 78%
08:00 +32°C° 0 mm 5 mps 758 mmHg 66%
09:00 +34°C° 0 mm 6 mps 758 mmHg 54%
10:00 +35°C° 0 mm 6 mps 758 mmHg 50%
11:00 +35°C° 0 mm 7 mps 758 mmHg 46%
12:00 +36°C° 0 mm 7 mps 757 mmHg 42%
13:00 +36°C° 0 mm 7 mps 757 mmHg 44%
14:00 +35°C° 0 mm 7 mps 757 mmHg 45%
15:00 +35°C° 0 mm 7 mps 757 mmHg 47%
16:00 +33°C° 0 mm 6 mps 757 mmHg 55%
17:00 +30°C° 0 mm 5 mps 757 mmHg 63%
18:00 +28°C° 0 mm 4 mps 757 mmHg 71%
19:00 +28°C° 0 mm 3 mps 758 mmHg 78%
20:00 +27°C° 0 mm 3 mps 758 mmHg 84%
21:00 +26°C° 0 mm 2 mps 758 mmHg 90%
22:00 +26°C° 0 mm 2 mps 758 mmHg 92%
23:00 +26°C° 0 mm 2 mps 758 mmHg 93%

Pasado mañana, 19 Abril, Lunes

Tiempo Temperatura Precipitaciones Viento Presión Humedad
00:00 +26°C° 0 mm 2 mps 758 mmHg 94%
01:00 +25°C° 0 mm 3 mps 758 mmHg 94%
02:00 +25°C° 0 mm 3 mps 758 mmHg 94%
03:00 +25°C° 0 mm 3 mps 758 mmHg 94%
04:00 +26°C° 0 mm 3 mps 758 mmHg 91%
05:00 +26°C° 0 mm 4 mps 758 mmHg 89%
06:00 +27°C° 0 mm 4 mps 759 mmHg 87%
07:00 +29°C° 0 mm 5 mps 759 mmHg 75%
08:00 +32°C° 0 mm 6 mps 759 mmHg 63%
09:00 +34°C° 0 mm 7 mps 759 mmHg 52%
10:00 +35°C° 0 mm 7 mps 759 mmHg 48%
11:00 +36°C° 0 mm 7 mps 758 mmHg 45%
12:00 +36°C° 0 mm 7 mps 758 mmHg 41%
13:00 +36°C° 0 mm 6 mps 758 mmHg 42%
14:00 +36°C° 0 mm 6 mps 757 mmHg 43%
15:00 +35°C° 0 mm 6 mps 757 mmHg 44%
16:00 +33°C° 0.1 mm 5 mps 757 mmHg 55%
17:00 +30°C° 0.1 mm 5 mps 758 mmHg 66%
18:00 +28°C° 0.1 mm 4 mps 758 mmHg 77%
19:00 +28°C° 0.1 mm 4 mps 758 mmHg 82%
20:00 +27°C° 0.1 mm 3 mps 758 mmHg 87%
21:00 +26°C° 0.1 mm 3 mps 759 mmHg 92%
22:00 +26°C° 0 mm 3 mps 759 mmHg 92%
23:00 +26°C° 0 mm 3 mps 759 mmHg 92%

20 Abril, Martes

Tiempo Temperatura Precipitaciones Viento Presión Humedad
00:00 +26°C° 0 mm 3 mps 759 mmHg 92%
01:00 +26°C° 0 mm 3 mps 758 mmHg 92%
02:00 +25°C° 0 mm 3 mps 758 mmHg 92%
03:00 +25°C° 0 mm 3 mps 758 mmHg 92%
04:00 +26°C° 0 mm 3 mps 758 mmHg 90%
05:00 +26°C° 0 mm 4 mps 759 mmHg 89%
06:00 +26°C° 0 mm 4 mps 759 mmHg 87%
07:00 +29°C° 0 mm 5 mps 759 mmHg 75%
08:00 +32°C° 0 mm 6 mps 759 mmHg 63%
09:00 +34°C° 0 mm 7 mps 760 mmHg 51%
10:00 +34°C° 0 mm 8 mps 759 mmHg 48%
11:00 +35°C° 0 mm 8 mps 759 mmHg 45%
12:00 +37°C° 0 mm 8 mps 759 mmHg 42%
13:00 +35°C° 0 mm 8 mps 758 mmHg 43%
14:00 +35°C° 0 mm 7 mps 758 mmHg 44%
15:00 +34°C° 0 mm 7 mps 758 mmHg 45%
16:00 +33°C° 0 mm 6 mps 758 mmHg 53%
17:00 +30°C° 0 mm 5 mps 758 mmHg 60%
18:00 +28°C° 0 mm 4 mps 758 mmHg 67%
19:00 +28°C° 0 mm 4 mps 759 mmHg 74%
20:00 +27°C° 0 mm 3 mps 759 mmHg 82%
21:00 +26°C° 0 mm 3 mps 759 mmHg 89%
22:00 +26°C° 0 mm 2 mps 759 mmHg 90%
23:00 +25°C° 0 mm 2 mps 759 mmHg 90%

21 Abril, Miércoles

Tiempo Temperatura Precipitaciones Viento Presión Humedad
00:00 +25°C° 0 mm 2 mps 759 mmHg 91%
01:00 +25°C° 0 mm 2 mps 759 mmHg 91%
02:00 +25°C° 0 mm 2 mps 759 mmHg 91%
03:00 +25°C° 0 mm 3 mps 758 mmHg 91%
04:00 +25°C° 0 mm 2 mps 759 mmHg 88%
05:00 +26°C° 0 mm 2 mps 759 mmHg 85%
06:00 +26°C° 0 mm 2 mps 760 mmHg 82%
07:00 +29°C° 0 mm 3 mps 760 mmHg 70%
08:00 +32°C° 0 mm 4 mps 760 mmHg 59%
09:00 +34°C° 0 mm 5 mps 760 mmHg 48%
10:00 +34°C° 0 mm 6 mps 760 mmHg 45%
11:00 +35°C° 0 mm 6 mps 760 mmHg 43%
12:00 +36°C° 0 mm 6 mps 760 mmHg 40%
13:00 +36°C° 0 mm 5 mps 759 mmHg 40%
14:00 +35°C° 0 mm 5 mps 759 mmHg 39%
15:00 +35°C° 0 mm 5 mps 759 mmHg 39%
16:00 +33°C° 0 mm 4 mps 759 mmHg 48%
17:00 +30°C° 0 mm 3 mps 759 mmHg 56%
18:00 +28°C° 0 mm 2 mps 760 mmHg 65%
19:00 +27°C° 0 mm 2 mps 760 mmHg 70%
20:00 +26°C° 0 mm 1 mps 760 mmHg 76%
21:00 +25°C° 0 mm 1 mps 761 mmHg 81%
22:00 +25°C° 0 mm 1 mps 761 mmHg 83%
23:00 +24°C° 0 mm 1 mps 760 mmHg 85%

22 Abril, Jueves

Tiempo Temperatura Precipitaciones Viento Presión Humedad
00:00 +24°C° 0 mm 1 mps 760 mmHg 87%
01:00 +24°C° 0 mm 1 mps 760 mmHg 88%
02:00 +24°C° 0 mm 1 mps 760 mmHg 89%
03:00 +23°C° 0 mm 1 mps 760 mmHg 90%
04:00 +24°C° 0 mm 1 mps 760 mmHg 88%
05:00 +24°C° 0 mm 1 mps 761 mmHg 86%
06:00 +25°C° 0 mm 2 mps 761 mmHg 84%
07:00 +27°C° 0 mm 2 mps 761 mmHg 72%
08:00 +30°C° 0 mm 2 mps 761 mmHg 60%
09:00 +33°C° 0 mm 3 mps 761 mmHg 48%
10:00 +35°C° 0 mm 3 mps 761 mmHg 44%
11:00 +36°C° 0 mm 4 mps 760 mmHg 39%
12:00 +37°C° 0 mm 5 mps 760 mmHg 35%
13:00 +36°C° 0.2 mm 4 mps 760 mmHg 38%
14:00 +34°C° 0.2 mm 3 mps 759 mmHg 42%
15:00 +32°C° 0.2 mm 2 mps 759 mmHg 46%
16:00 +30°C° 0.1 mm 2 mps 759 mmHg 54%
17:00 +29°C° 0.1 mm 2 mps 760 mmHg 63%
18:00 +27°C° 0.1 mm 2 mps 760 mmHg 71%
19:00 +26°C° 0 mm 2 mps 760 mmHg 77%
20:00 +25°C° 0 mm 3 mps 761 mmHg 83%
21:00 +24°C° 0 mm 3 mps 762 mmHg 88%
22:00 +24°C° 0 mm 3 mps 761 mmHg 90%
23:00 +22°C° 0 mm 3 mps 761 mmHg 92%
Mostrar más

Necesitamos Su Consentimiento

Meteoprog y nuestros Proveedores de Servicios pueden almacenar y acceder a sus datos personales como cookies, identificadores de dispositivo u otras tecnologías similares de su dispositivo y procesar dichos datos para personalizar contenido y anuncios, además de ofrecer funciones de redes sociales y analizar el tráfico.

  • Almacenar y/o acceder a información en su dispositivo

    Se puede almacenar o acceder a cookies, identificadores de dispositivo u otra información de su dispositivo para los fines anteriormente indicados.

  • Anuncios y contenido personalizados, medición de anuncios y contenido, percepciones del público, y desarrollo de productos

    Los anuncios y el contenido pueden personalizarse en base a su perfil. Se pueden añadir más datos para personalizar mejor los anuncios y contenidos. Se puede medir el rendimiento de los anuncios y contenidos. Se puede obtener la percepción sobre el público que ha visto los anuncios y contenidos. Dichos datos pueden usarse para desarrollar o mejorar la experiencia del usuario, sistemas y software.

Al hacer clic en ‘Estoy De Acuerdo’ usted permitirá el uso de las cookies, identificadores de dispositivo, balizas web u otras tecnologías similares indicadas. Su configuración puede cambiarse desde el navegador de su dispositivo.

Para ciertos fines, los intereses legítimos pueden ser considerados por encima del consentimiento. Puede leer más sobre ello en nuestra Política de Privacidad y Cookies.